Regional Weather Roundup
Issued by NWS Cleveland, OH

Home | Current Version | Previous Version | Text Only | Print | Product List | Glossary Off
Versions: 1 2 3 4 5 6 7 8 9 10 11 12 13 14 15 16 17 18 19 20 21 22 23 24 25 26 27 28 29 30 31 32 33 34 35 36 37 38 39 40 41 42 43 44 45 46 47 48 49 50

000
ASUS41 KCLE 200202
RWRCLE
OHIO REGIONAL WEATHER ROUNDUP
NATIONAL WEATHER SERVICE CLEVELAND, OH
900 PM EST SUN FEB 19 2017

NOTE: "FAIR" INDICATES FEW OR NO CLOUDS BELOW 12,000 FEET WITH NO
SIGNIFICANT WEATHER AND/OR OBSTRUCTIONS TO VISIBILITY.

OHZ001>008-015>018-024>027-034-035-043-044-200300-
   NORTHWEST OHIO

CITY           SKY/WX    TMP DP  RH WIND       PRES   REMARKS
DEFIANCE       CLEAR     44  32  62 CALM      30.12R
FINDLAY        CLEAR     48  32  53 CALM      30.10R
TOLEDO EXPRESS CLEAR     47  32  56 W3        30.11R
TOLEDO EXEC    CLEAR     48  33  56 CALM      30.11R
LIMA           CLEAR     49  35  58 SW5       30.12R
$$

OHZ009>014-019>023-028>033-038-089-200300-
   NORTHEAST OHIO

CITY           SKY/WX    TMP DP  RH WIND       PRES   REMARKS
CLE-HOPKINS    CLOUDY    44  33  65 CALM      30.12R
CLE-LAKEFRONT  PTCLDY    47  36  65 NE5       30.10R
CUY CO. ARPT   PTCLDY    41  36  81 S5        30.11R
LORAIN-ELYRIA  PTCLDY    45  34  65 SW5       30.10S
ASHTABULA      CLEAR     41  34  76 NE3       30.13R
AKRON-CANTON   CLEAR     50  33  52 W3        30.11R
WOOSTER        CLEAR     41  34  76 CALM      30.12R
MANSFIELD      CLEAR     52  32  46 SW5       30.12R
YOUNGSTOWN     PTCLDY    49  31  49 CALM      30.11R
$$

OHZ042-051>053-060>062-070>072-077>081-200300-
  SOUTHWEST OHIO

CITY           SKY/WX    TMP DP  RH WIND       PRES   REMARKS
CINC-COVINGTON CLEAR     47  45  93 S5        30.14R FOG
CINC-LUNKEN    CLEAR     44  43  96 CALM      30.16R FOG
HAMILTON       CLEAR     40  38  93 E3        30.15S
DAYTON         CLEAR     48  43  82 SW5       30.14S
WRIGHT-PAT AFB CLEAR     44  44  98 CALM      30.13S
DAYTON GENERAL CLEAR     46  42  86 S7        30.13S
WILMINGTON     CLEAR     45  43  93 S7        30.14S FOG
$$

OHZ036-037-039>041-045>050-054>059-063>069-073>076-082>088-200300-
  CENTRAL AND SOUTHEAST OHIO

CITY           SKY/WX    TMP DP  RH WIND       PRES   REMARKS
COLUMBUS       PTCLDY    47  42  83 CALM      30.14R HAZE
OSU AIRPORT    CLEAR     47  43  86 SW6       30.13R
BOLTON FIELD   NOT AVBL
RICKENBACK AFB CLEAR     45  44  95 SW7       30.15R
NEWARK         FOG       40  39  97 CALM      30.14R VSB 1
MARION         CLEAR     40  32  73 S5        30.13R
LANCASTER      FOG       37  36  96 CALM      30.15R VSB 1
ZANESVILLE     CLEAR     45  41  86 CALM      30.14R
NEW PHILLY     NOT AVBL
$$



USA.gov is the U.S. government's official web portal to all federal, state and local government web resources and services.